sat.trackr.live / text

‹ back to catalog

STARLINK-3204

NORAD 49759 · 2021-115AM

PAYLOAD ACTIVE UNKNOWN

§ Identity

Operator
Country
US
Launch date
2021-12-02
Launch site
AFETR
Launch vehicle
Mass (kg)
RCS (m²)

Purposes: comms

External: N2YO · Heavens-Above · Gunter

§ Orbital elements

Epoch: 2026-05-25T01:23:49.382016Z

Period
95.44 min
Inclination
53.2140°
Eccentricity
0.0000528
Mean motion
15.08832957 rev/d
Perigee alt
539.4 km
Apogee alt
540.1 km
Semi-major
6,917.9 km
B*
-1.6740e-5
RAAN
156.2875°
Arg perigee
23.8574°
Mean anomaly
336.2442°
Rev number
24,720

§ Raw data

STARLINK-32041 49759U 21115AM  26145.05821044 -.00000554  00000+0 -16740-4 0  99932 49759  53.2140 156.2875 0000528  23.8574 336.2442 15.08832957247206

JSON: /api/v1/satellites/49759 · /tle

For live sub-satellite position, see the globe view (requires WebGL).

§ Visibility from observer

Set your observer location to see the next 7 days of passes ≥ 10°. The values pass through the URL so the page stays shareable.

No JS? Fill the form by hand. The geolocation button needs JavaScript.